| time (UTC) | temp F | wind direction | speed knots | gust knots | rain 1hr in | rain 24hr in | rain mn in | humidity % | barometer mb |
| 20260505064745 | 60 | 242 | 5.2 | 11.3 | 0.00 | 0.00 | 0.00 | 66 | 1008.2 |
| 20260505064345 | 59 | 229 | 5.2 | 8.7 | 0.00 | 0.00 | 0.00 | 66 | 1008.0 |
| 20260505063545 | 59 | 226 | 5.2 | 9.6 | 0.00 | 0.00 | 0.00 | 66 | 1008.1 |
| 20260505063346 | 59 | 178 | 5.2 | 8.7 | 0.00 | 0.00 | 0.00 | 66 | 1008.2 |
| 20260505062345 | 59 | 252 | 5.2 | 7.8 | 0.00 | 0.00 | 0.00 | 66 | 1008.5 |
| 20260505061346 | 59 | 237 | 6.1 | 10.4 | 0.00 | 0.00 | 0.00 | 66 | 1008.5 |
| 20260505061145 | 59 | 227 | 6.1 | 10.4 | 0.00 | 0.00 | 0.00 | 65 | 1008.5 |
| 20260505060346 | 59 | 229 | 7.0 | 10.4 | 0.00 | 0.00 | 0.00 | 65 | 1008.5 |
| 20260505055346 | 59 | 247 | 5.2 | 8.7 | 0.00 | 0.00 | 0.00 | 66 | 1008.5 |
| 20260505054745 | 59 | 215 | 5.2 | 7.8 | 0.00 | 0.00 | 0.00 | 67 | 1008.5 |
| 20260505054346 | 59 | 238 | 6.1 | 8.7 | 0.00 | 0.00 | 0.00 | 67 | 1008.5 |
| 20260505053545 | 59 | 238 | 6.1 | 9.6 | 0.00 | 0.00 | 0.00 | 67 | 1008.5 |
| 20260505053348 | 59 | 244 | 5.2 | 8.7 | 0.00 | 0.00 | 0.00 | 67 | 1008.6 |
| 20260505052345 | 59 | 232 | 5.2 | 8.7 | 0.00 | 0.00 | 0.00 | 67 | 1008.5 |
| 20260505051346 | 59 | 233 | 4.3 | 7.8 | 0.00 | 0.00 | 0.00 | 67 | 1008.5 |
| 20260505051145 | 59 | 242 | 4.3 | 7.8 | 0.00 | 0.00 | 0.00 | 67 | 1008.4 |
| 20260505050346 | 59 | 250 | 5.2 | 8.7 | 0.00 | 0.00 | 0.00 | 67 | 1008.4 |
| 20260505041346 | 59 | 183 | 4.3 | 9.6 | 0.00 | 0.00 | 0.00 | 66 | 1008.4 |
| 20260505041145 | 59 | 229 | 4.3 | 10.4 | 0.00 | 0.00 | 0.00 | 66 | 1008.4 |
| 20260505040346 | 59 | 241 | 5.2 | 7.8 | 0.00 | 0.00 | 0.00 | 65 | 1008.4 |
| 20260505035945 | 59 | 242 | 5.2 | 10.4 | 0.00 | 0.00 | 0.00 | 65 | 1008.3 |
| 20260505035346 | 59 | 220 | 5.2 | 9.6 | 0.00 | 0.00 | 0.00 | 65 | 1008.3 |
| 20260505034745 | 59 | 192 | 4.3 | 7.8 | 0.00 | 0.00 | 0.00 | 65 | 1008.3 |
| 20260505034347 | 59 | 231 | 4.3 | 8.7 | 0.00 | 0.00 | 0.00 | 64 | 1008.2 |
| 20260505033545 | 59 | 158 | 5.2 | 7.8 | 0.00 | 0.00 | 0.00 | 63 | 1008.2 |
| 20260505033346 | 60 | 214 | 5.2 | 7.8 | 0.00 | 0.00 | 0.00 | 63 | 1008.1 |
| 20260505032345 | 60 | 173 | 4.3 | 9.6 | 0.00 | 0.00 | 0.00 | 63 | 1008.2 |
| 20260505031346 | 60 | 238 | 5.2 | 8.7 | 0.00 | 0.00 | 0.00 | 62 | 1008.3 |
| 20260505031145 | 60 | 212 | 5.2 | 10.4 | 0.00 | 0.00 | 0.00 | 62 | 1008.4 |
| 20260505030347 | 60 | 175 | 4.3 | 11.3 | 0.00 | 0.00 | 0.00 | 62 | 1008.4 |
| 20260505025945 | 60 | 218 | 4.3 | 8.7 | 0.00 | 0.00 | 0.00 | 62 | 1008.4 |
| 20260505025346 | 60 | 214 | 3.5 | 7.8 | 0.00 | 0.00 | 0.00 | 62 | 1008.5 |
| 20260505024745 | 59 | 188 | 3.5 | 7.0 | 0.00 | 0.00 | 0.00 | 63 | 1008.5 |
| 20260505024346 | 60 | 240 | 3.5 | 8.7 | 0.00 | 0.00 | 0.00 | 62 | 1008.4 |
| 20260505023545 | 60 | 218 | 3.5 | 6.1 | 0.00 | 0.00 | 0.00 | 62 | 1008.4 |
| 20260505023346 | 60 | 196 | 3.5 | 6.1 | 0.00 | 0.00 | 0.00 | 62 | 1008.4 |
| 20260505022345 | 60 | 198 | 3.5 | 7.8 | 0.00 | 0.00 | 0.00 | 61 | 1008.4 |
| 20260505021346 | 60 | 185 | 3.5 | 8.7 | 0.00 | 0.00 | 0.00 | 61 | 1008.4 |
| 20260505021145 | 60 | 239 | 3.5 | 8.7 | 0.00 | 0.00 | 0.00 | 60 | 1008.4 |
| 20260505020347 | 60 | 188 | 3.5 | 6.1 | 0.00 | 0.00 | 0.00 | 59 | 1008.4 |
| 20260505015945 | 61 | 236 | 4.3 | 6.1 | 0.00 | 0.00 | 0.00 | 59 | 1008.5 |
| 20260505015346 | 61 | 157 | 4.3 | 8.7 | 0.00 | 0.00 | 0.00 | 59 | 1008.6 |
| 20260505014745 | 61 | 235 | 3.5 | 9.6 | 0.00 | 0.00 | 0.00 | 58 | 1008.5 |
| 20260505014346 | 61 | 194 | 3.5 | 8.7 | 0.00 | 0.00 | 0.00 | 58 | 1008.5 |
| 20260505013545 | 61 | 199 | 4.3 | 9.6 | 0.00 | 0.00 | 0.00 | 57 | 1008.6 |
| 20260505013347 | 61 | 177 | 4.3 | 9.6 | 0.00 | 0.00 | 0.00 | 57 | 1008.5 |
| 20260505012345 | 61 | 243 | 5.2 | 13.0 | 0.00 | 0.00 | 0.00 | 56 | 1008.3 |
| 20260505011348 | 62 | 240 | 4.3 | 9.6 | 0.00 | 0.00 | 0.00 | 55 | 1008.1 |
| 20260505011145 | 62 | 134 | 4.3 | 9.6 | 0.00 | 0.00 | 0.00 | 56 | 1008.1 |
| 20260505010347 | 62 | 199 | 5.2 | 9.6 | 0.00 | 0.00 | 0.00 | 55 | 1008.0 |
| 20260505005945 | 62 | 161 | 5.2 | 11.3 | 0.00 | 0.00 | 0.00 | 54 | 1008.0 |
| 20260505005354 | 62 | 238 | 5.2 | 10.4 | 0.00 | 0.00 | 0.00 | 54 | 1008.0 |
| 20260505004745 | 62 | 235 | 6.1 | 11.3 | 0.00 | 0.00 | 0.00 | 53 | 1008.0 |
| 20260505004347 | 62 | 238 | 6.1 | 12.2 | 0.00 | 0.00 | 0.00 | 53 | 1007.9 |
| 20260505003545 | 63 | 223 | 7.0 | 13.0 | 0.00 | 0.00 | 0.00 | 52 | 1007.9 |
| 20260505003347 | 63 | 237 | 7.0 | 13.0 | 0.00 | 0.00 | 0.00 | 51 | 1007.9 |
| 20260505002345 | 63 | 240 | 6.1 | 13.9 | 0.00 | 0.00 | 0.00 | 50 | 1007.9 |
| 20260505001346 | 63 | 184 | 6.1 | 13.0 | 0.00 | 0.00 | 0.00 | 49 | 1007.8 |
| 20260505001145 | 63 | 219 | 6.1 | 12.2 | 0.00 | 0.00 | 0.00 | 48 | 1007.7 |
| 20260505000346 | 64 | 236 | 6.1 | 8.7 | 0.00 | 0.00 | 0.00 | 48 | 1007.8 |
| 20260504235945 | 64 | 222 | 7.0 | 12.2 | 0.00 | 0.00 | 0.00 | 47 | 1007.8 |
| 20260504235351 | 65 | 233 | 6.1 | 13.9 | 0.00 | 0.00 | 0.00 | 46 | 1007.9 |
| 20260504234745 | 65 | 254 | 5.2 | 11.3 | 0.00 | 0.00 | 0.00 | 46 | 1007.9 |
| 20260504234346 | 65 | 259 | 5.2 | 12.2 | 0.00 | 0.00 | 0.00 | 46 | 1007.8 |
| 20260504233545 | 66 | 244 | 5.2 | 11.3 | 0.00 | 0.00 | 0.00 | 45 | 1007.8 |
| 20260504233347 | 66 | 196 | 5.2 | 11.3 | 0.00 | 0.00 | 0.00 | 45 | 1007.8 |
| 20260504232345 | 66 | 225 | 4.3 | 9.6 | 0.00 | 0.00 | 0.00 | 45 | 1007.9 |
| 20260504231346 | 67 | 228 | 5.2 | 10.4 | 0.00 | 0.00 | 0.00 | 44 | 1007.9 |
| 20260504231145 | 67 | 214 | 5.2 | 11.3 | 0.00 | 0.00 | 0.00 | 44 | 1007.9 |
| 20260504230346 | 67 | 248 | 5.2 | 10.4 | 0.00 | 0.00 | 0.00 | 43 | 1008.0 |
| 20260504225945 | 68 | 225 | 4.3 | 11.3 | 0.00 | 0.00 | 0.00 | 44 | 1008.0 |
| 20260504225346 | 68 | 261 | 5.2 | 7.0 | 0.00 | 0.00 | 0.00 | 43 | 1008.0 |
| 20260504224745 | 68 | 192 | 5.2 | 11.3 | 0.00 | 0.00 | 0.00 | 42 | 1008.0 |
| 20260504224347 | 68 | 215 | 5.2 | 12.2 | 0.00 | 0.00 | 0.00 | 42 | 1008.0 |
| 20260504223545 | 68 | 183 | 6.1 | 12.2 | 0.00 | 0.00 | 0.00 | 44 | 1008.0 |
| 20260504223348 | 68 | 242 | 5.2 | 12.2 | 0.00 | 0.00 | 0.00 | 43 | 1008.0 |
| 20260504222346 | 68 | 232 | 5.2 | 9.6 | 0.00 | 0.00 | 0.00 | 43 | 1008.0 |
| 20260504221347 | 69 | 200 | 5.2 | 12.2 | 0.00 | 0.00 | 0.00 | 42 | 1008.0 |
| 20260504221146 | 69 | 189 | 5.2 | 12.2 | 0.00 | 0.00 | 0.00 | 41 | 1008.0 |
| 20260504220347 | 69 | 206 | 4.3 | 9.6 | 0.00 | 0.00 | 0.00 | 41 | 1008.0 |
| 20260504215945 | 69 | 228 | 4.3 | 7.8 | 0.00 | 0.00 | 0.00 | 42 | 1008.0 |
| 20260504215354 | 69 | 236 | 5.2 | 7.8 | 0.00 | 0.00 | 0.00 | 44 | 1008.1 |
| 20260504214746 | 69 | 242 | 6.1 | 12.2 | 0.00 | 0.00 | 0.00 | 41 | 1008.0 |
| 20260504214347 | 69 | 167 | 5.2 | 12.2 | 0.00 | 0.00 | 0.00 | 41 | 1008.0 |
| 20260504213546 | 69 | 232 | 5.2 | 12.2 | 0.00 | 0.00 | 0.00 | 41 | 1008.0 |
| 20260504213347 | 69 | 219 | 7.0 | 12.2 | 0.00 | 0.00 | 0.00 | 43 | 1008.0 |
| 20260504212346 | 69 | 233 | 7.8 | 14.8 | 0.00 | 0.00 | 0.00 | 41 | 1008.1 |
| 20260504211347 | 69 | 215 | 6.1 | 10.4 | 0.00 | 0.00 | 0.00 | 41 | 1008.0 |
| 20260504211146 | 69 | 227 | 6.1 | 10.4 | 0.00 | 0.00 | 0.00 | 41 | 1008.1 |
| 20260504210349 | 70 | 239 | 5.2 | 14.8 | 0.00 | 0.00 | 0.00 | 41 | 1008.0 |
| 20260504205946 | 70 | 184 | 5.2 | 13.0 | 0.00 | 0.00 | 0.00 | 40 | 1008.1 |
| 20260504205349 | 70 | 236 | 5.2 | 12.2 | 0.00 | 0.00 | 0.00 | 39 | 1007.9 |
| 20260504204746 | 69 | 199 | 6.1 | 11.3 | 0.00 | 0.00 | 0.00 | 40 | 1008.2 |
| 20260504204347 | 70 | 220 | 6.1 | 13.0 | 0.00 | 0.00 | 0.00 | 41 | 1008.1 |
| 20260504203546 | 70 | 213 | 7.0 | 11.3 | 0.00 | 0.00 | 0.00 | 40 | 1008.1 |
| 20260504203347 | 70 | 247 | 7.0 | 11.3 | 0.00 | 0.00 | 0.00 | 41 | 1008.1 |
| 20260504202346 | 70 | 265 | 8.7 | 14.8 | 0.00 | 0.00 | 0.00 | 38 | 1008.2 |
| 20260504201347 | 70 | 240 | 7.8 | 15.6 | 0.00 | 0.00 | 0.00 | 38 | 1008.3 |
| 20260504201146 | 70 | 228 | 7.0 | 14.8 | 0.00 | 0.00 | 0.00 | 38 | 1008.4 |
| 20260504200347 | 69 | 237 | 9.6 | 14.8 | 0.00 | 0.00 | 0.00 | 39 | 1008.5 |
| 20260504195946 | 69 | 262 | 10.4 | 14.8 | 0.00 | 0.00 | 0.00 | 38 | 1008.6 |
| 20260504195347 | 69 | 233 | 8.7 | 15.6 | 0.00 | 0.00 | 0.00 | 40 | 1008.7 |
| 20260504194746 | 69 | 212 | 8.7 | 13.0 | 0.00 | 0.00 | 0.00 | 39 | 1008.8 |
| 20260504194347 | 69 | 238 | 8.7 | 17.4 | 0.00 | 0.00 | 0.00 | 38 | 1008.8 |
| 20260504193546 | 69 | 243 | 8.7 | 13.9 | 0.00 | 0.00 | 0.00 | 40 | 1008.9 |
| 20260504193347 | 69 | 238 | 9.6 | 13.9 | 0.00 | 0.00 | 0.00 | 39 | 1008.9 |
| 20260504192346 | 69 | 255 | 9.6 | 13.9 | 0.00 | 0.00 | 0.00 | 42 | 1009.2 |
| 20260504191347 | 69 | 242 | 9.6 | 14.8 | 0.00 | 0.00 | 0.00 | 40 | 1009.3 |
| 20260504191146 | 69 | 246 | 9.6 | 14.8 | 0.00 | 0.00 | 0.00 | 42 | 1009.2 |
| 20260504190348 | 68 | 224 | 8.7 | 13.0 | 0.00 | 0.00 | 0.00 | 39 | 1009.3 |
| 20260504185946 | 69 | 223 | 8.7 | 14.8 | 0.00 | 0.00 | 0.00 | 40 | 1009.5 |
| 20260504185349 | 69 | 250 | 8.7 | 13.9 | 0.00 | 0.00 | 0.00 | 39 | 1009.5 |
| 20260504184746 | 68 | 230 | 10.4 | 15.6 | 0.00 | 0.00 | 0.00 | 42 | 1009.6 |
| 20260504184347 | 68 | 258 | 9.6 | 16.5 | 0.00 | 0.00 | 0.00 | 39 | 1009.6 |
| 20260504183546 | 68 | 259 | 7.0 | 11.3 | 0.00 | 0.00 | 0.00 | 40 | 1009.6 |
| 20260504183347 | 68 | 243 | 7.0 | 10.4 | 0.00 | 0.00 | 0.00 | 42 | 1009.7 |
| 20260504182346 | 67 | 245 | 7.8 | 13.0 | 0.00 | 0.00 | 0.00 | 42 | 1009.7 |
| 20260504181347 | 67 | 246 | 7.0 | 16.5 | 0.00 | 0.00 | 0.00 | 41 | 1009.9 |
| 20260504181146 | 67 | 240 | 7.0 | 16.5 | 0.00 | 0.00 | 0.00 | 40 | 1009.9 |
| 20260504180347 | 67 | 234 | 6.1 | 13.0 | 0.00 | 0.00 | 0.00 | 42 | 1010.0 |
| 20260504175946 | 67 | 192 | 7.0 | 12.2 | 0.00 | 0.00 | 0.00 | 42 | 1010.1 |
| 20260504175346 | 66 | 279 | 9.6 | 12.2 | 0.00 | 0.00 | 0.00 | 41 | 1010.3 |
| 20260504174746 | 66 | 246 | 9.6 | 14.8 | 0.00 | 0.00 | 0.00 | 41 | 1010.3 |
| 20260504174348 | 66 | 237 | 7.8 | 13.0 | 0.00 | 0.00 | 0.00 | 44 | 1010.4 |
| 20260504173546 | 66 | 236 | 7.8 | 13.9 | 0.00 | 0.00 | 0.00 | 42 | 1010.4 |
| 20260504173347 | 66 | 236 | 7.0 | 13.0 | 0.00 | 0.00 | 0.00 | 43 | 1010.5 |
| 20260504172346 | 65 | 216 | 7.0 | 9.6 | 0.00 | 0.00 | 0.00 | 43 | 1010.6 |
| 20260504171347 | 65 | 238 | 8.7 | 16.5 | 0.00 | 0.00 | 0.00 | 42 | 1010.8 |
| 20260504171146 | 65 | 236 | 8.7 | 16.5 | 0.00 | 0.00 | 0.00 | 40 | 1010.9 |
| 20260504170347 | 65 | 252 | 7.0 | 13.9 | 0.00 | 0.00 | 0.00 | 41 | 1010.9 |
| 20260504160347 | 63 | 288 | 6.1 | 11.3 | 0.00 | 0.00 | 0.00 | 47 | 1011.8 |
| 20260504151146 | 61 | 259 | 6.1 | 10.4 | 0.00 | 0.00 | 0.00 | 48 | 1012.3 |
| 20260504150347 | 60 | 243 | 7.0 | 8.7 | 0.00 | 0.00 | 0.00 | 47 | 1012.4 |
| 20260504141146 | 57 | 253 | 4.3 | 8.7 | 0.00 | 0.00 | 0.00 | 58 | 1012.5 |
| 20260504140348 | 56 | 241 | 4.3 | 9.6 | 0.00 | 0.00 | 0.00 | 57 | 1012.6 |
| 20260504130351 | 51 | 233 | 5.2 | 10.4 | 0.00 | 0.00 | 0.00 | 65 | 1012.8 |
| 20260504110348 | 45 | 181 | 3.5 | 6.1 | 0.00 | 0.00 | 0.00 | 64 | 1013.0 |
| 20260504100347 | 46 | 233 | 4.3 | 7.0 | 0.00 | 0.00 | 0.00 | 56 | 1013.2 |
| 20260504081353 | 47 | 244 | 4.3 | 7.0 | 0.00 | 0.00 | 0.00 | 51 | 1013.3 |
| 20260504081147 | 47 | 252 | 4.3 | 6.1 | 0.00 | 0.00 | 0.00 | 51 | 1013.4 |
| 20260504080347 | 47 | 244 | 4.3 | 6.1 | 0.00 | 0.00 | 0.00 | 52 | 1013.4 |
| 20260504070348 | 47 | 225 | 4.3 | 5.2 | 0.00 | 0.00 | 0.00 | 52 | 1013.5 |